User: anonymous   Login
Location: Newark
(48.8519°N, 2.3472°E)
Time: 02:26:08
(UTC+00:00)
Language:

AIST 2D - Orbit

View from above orbital plane
View from above orbital plane
View from above satellite
View from above satellite

Ground track
Ground track

The orbit data is extracted from the following two-line orbital elements,

1 41465U 16026B   19288.37640183  .00001456  00000-0  46431-4 0  9993
2 41465  97.1751 180.4793 0012955  58.9170  31.4655 15.34029950193696
Epoch (UTC): 15 October 2019 09:02:01
Eccentricity: 0.0012955
inclination: 97.1751°
perigee height: 455 km
apogee height: 472 km
right ascension of ascending node: 180.4793°
argument of perigee: 58.9170°
revolutions per day: 15.34029950
mean anomaly at epoch: 31.4655°
orbit number at epoch: 19369

The dashed part of the orbit path shows where the satellite is in the earth's shadow,  

DLR